Now boarding.
Please wait.

menu

our worldwide Hubs

Our Hubs

GlobalOne creates a global network with its airline members connecting the globe. Our hubs are strategically placed to form a network of maximum connectivity and enabling our pilots to fly any part of the world. Spanning all the way from Europe to Asia & South America, GlobalOne has the most comprehensive Virtual Airline network, distinguishing us from the rest.

NZAA Auckland International Airport

Airport Information METAR Runway Information

Current Weather:

NZAA 221130Z AUTO 05002KT 8000 NCD 09/09 Q1015 TEMPO 1500 BR

Runway Facts:

Direction Length m Length ft Elevation m Elevation ft Surface
05R/23L 3,535 11,926 7 m 23 ft Concrete

EBBR Brussels International Airport

Airport Information METAR Runway Information

Current Weather:

EBBR 221150Z 30006KT 230V330 9999 FEW046 25/14 Q1024 NOSIG

Runway Facts:

Direction Length m Length ft Elevation m Elevation ft Surface
01/19 2,987 9,800 56 m 184 ft Asphalt
07R/25L 3,211 10,535 56 m 184 ft Asphalt
07L/25R 3,638 11,936 56 m 184 ft Asphalt

LEBL Barcelona El-Prat

Airport Information METAR Runway Information

Current Weather:

LEBL 221130Z 14006KT 100V170 CAVOK 29/22 Q1021 NOSIG

Runway Facts:

Direction Length m Length ft Elevation m Elevation ft Surface
07L/25R 3,743 12,281 4 m 14 ft Asphalt concrete
07R/25L 2,660 8,727 4 m 14 ft Asphalt concrete
02/20 2,528 8,293 4 m 14 ft Asphalt concrete

SVMI Caracas Simón Bolívar International Airport

Airport Information METAR Runway Information

Current Weather:

SVMI 221100Z 07002KT 9999 SCT016 25/22 Q1011 NOSIG

Runway Facts:

Direction Length m Length ft Elevation m Elevation ft Surface
10/28 3,610 11,483 72 m 235 ft Asphalt
09/27 3,270 9,930 72 m 235 ft Asphalt

LEMD Madrid Barajas

Airport Information METAR Runway Information

Current Weather:

LEMD 221130Z 14006KT 090V210 CAVOK 33/07 Q1021 NOSIG

Runway Facts:

Direction Length m Length ft Elevation m Elevation ft Surface
14R/32L 4,100 13,451 610 m 2,000 ft Asphalt
18L/36R 3,500 11,482 610 m 2,000 ft Asphalt
14L/32R 3,500 11,482 610 m 2,000 ft Asphalt
18R/36L 4,350 14,268 610 m 2,000 ft Asphalt/Concrete

LEMG Malaga

Airport Information METAR Runway Information

Current Weather:

LEMG 221130Z 16007KT 090V200 CAVOK 30/22 Q1018 NOSIG

Runway Facts:

Direction Length m Length ft Elevation m Elevation ft Surface
13/31 3,200 10,500 16 m 52 ft Asphalt
12/30 2,750 9,022 16 m 52 ft Asphalt

OJAI Queen Alia International Airport

Airport Information METAR Runway Information

Current Weather:

OJAI 221200Z 28010KT 7000 NSC 34/13 Q1010 NOSIG

Runway Facts:

Direction Length m Length ft Elevation m Elevation ft Surface
08R/26L 3,660 12,008 730 m 2,395 ft Concrete
08L/26R 3,660 12,008 730 m 2,395 ft Asphalt

KRSW Southwest Florida International Airport

Airport Information METAR Runway Information

Current Weather:

KRSW 221153Z 08006KT 10SM CLR 24/22 A3002 RMK AO2 SLP163 70201 T02390222 10239 20228 53005

Runway Facts:

Direction Length m Length ft Elevation m Elevation ft Surface
06/24 3,658 12,000 9 m 30 ft Asphalt